Tracking 29892 objects as of 21-Nov-2024
HD Live streaming from Space Station
objects crossing your sky now

STARLINK-30449

Track STARLINK-30449 now!
10-day predictions
STARLINK-30449 is classified as:


NORAD ID: 57903
Int'l Code: 2023-146N
Perigee: 565.5 km
Apogee: 566.9 km
Inclination: 43.0 °
Period: 95.8 minutes
Semi major axis: 6937 km
RCS: Unknown
Launch date: September 20, 2023
Source: United States (US)
Launch site: AIR FORCE EASTERN TEST RANGE (AFETR)
Your satellite tracking list
Your tracking list is empty




NASA's NSSDC Master Catalog

Two Line Element Set (TLE):
1 57903U 23146N   24325.51243340  .00002255  00000-0  18194-3 0  9998
2 57903  43.0032   9.3784 0000956 300.3165  59.7583 15.02539395 64680
Source of the keplerian elements: AFSPC